| time (UTC) | temp C | wind direction | speed KPH | gust KPH | rain 1hr cm | rain 24hr cm | rain mn cm | humidity % | barometer mb |
| 20260506092357 | 10 | 93 | 6.4 | 12.9 | 0.00 | 0.00 | 0.00 | 81 | 1013.4 |
| 20260506091853 | 10 | 188 | 0.0 | 8.0 | 0.00 | 0.00 | 0.00 | 81 | 1013.2 |
| 20260506091351 | 10 | 131 | 4.8 | 9.7 | 0.00 | 0.00 | 0.00 | 81 | 1013.0 |
| 20260506090848 | 10 | 116 | 4.8 | 6.4 | 0.00 | 0.00 | 0.00 | 81 | 1013.2 |
| 20260506090346 | 10 | 131 | 0.0 | 6.4 | 0.00 | 0.00 | 0.00 | 81 | 1012.9 |
| 20260506085842 | 10 | 138 | 0.0 | 8.0 | 0.00 | 0.00 | 0.00 | 81 | 1012.9 |
| 20260506085339 | 10 | 140 | 0.0 | 8.0 | 0.00 | 0.00 | 0.00 | 81 | 1013.1 |
| 20260506084835 | 10 | 126 | 3.2 | 6.4 | 0.00 | 0.00 | 0.00 | 80 | 1013.0 |
| 20260506084332 | 10 | 133 | 3.2 | 6.4 | 0.00 | 0.00 | 0.00 | 80 | 1012.8 |
| 20260506083829 | 10 | 167 | 0.0 | 9.7 | 0.00 | 0.00 | 0.00 | 80 | 1012.8 |
| 20260506083326 | 10 | 116 | 3.2 | 8.0 | 0.00 | 0.00 | 0.00 | 80 | 1012.8 |
| 20260506082824 | 10 | 122 | 4.8 | 8.0 | 0.00 | 0.00 | 0.00 | 79 | 1012.7 |
| 20260506082320 | 10 | 199 | 0.0 | 8.0 | 0.00 | 0.00 | 0.00 | 79 | 1012.5 |
| 20260506081816 | 10 | 114 | 4.8 | 9.7 | 0.00 | 0.00 | 0.00 | 78 | 1012.4 |
| 20260506081314 | 10 | 122 | 0.0 | 8.0 | 0.00 | 0.00 | 0.00 | 78 | 1012.2 |
| 20260506080812 | 10 | 122 | 3.2 | 8.0 | 0.00 | 0.00 | 0.00 | 78 | 1012.2 |
| 20260506080308 | 11 | 103 | 4.8 | 6.4 | 0.00 | 0.00 | 0.00 | 79 | 1012.3 |
| 20260506073252 | 11 | 150 | 0.0 | 8.0 | 0.00 | 0.00 | 0.00 | 78 | 1012.0 |
| 20260506072749 | 11 | 129 | 4.8 | 8.0 | 0.00 | 0.00 | 0.00 | 79 | 1012.0 |
| 20260506072246 | 11 | 118 | 0.0 | 8.0 | 0.00 | 0.00 | 0.00 | 79 | 1012.1 |
| 20260506071744 | 11 | 116 | 0.0 | 8.0 | 0.00 | 0.00 | 0.00 | 79 | 1012.2 |
| 20260506071242 | 11 | 116 | 4.8 | 6.4 | 0.00 | 0.00 | 0.00 | 79 | 1012.2 |
| 20260506070738 | 11 | 193 | 3.2 | 6.4 | 0.00 | 0.00 | 0.00 | 79 | 1012.1 |
| 20260506070235 | 11 | 116 | 9.7 | 11.3 | 0.00 | 0.00 | 0.00 | 78 | 1012.3 |
| 20260506062212 | 11 | 133 | 4.8 | 6.4 | 0.00 | 0.00 | 0.00 | 78 | 1011.6 |
| 20260506061708 | 11 | 135 | 4.8 | 6.4 | 0.00 | 0.00 | 0.00 | 78 | 1011.7 |
| 20260506061206 | 11 | 149 | 0.0 | 6.4 | 0.00 | 0.00 | 0.00 | 78 | 1011.8 |
| 20260506060705 | 11 | 156 | 0.0 | 4.8 | 0.00 | 0.00 | 0.00 | 77 | 1011.6 |
| 20260506060201 | 11 | 175 | 4.8 | 8.0 | 0.00 | 0.00 | 0.00 | 77 | 1011.9 |
| 20260506051133 | 11 | 96 | 4.8 | 11.3 | 0.00 | 0.00 | 0.00 | 76 | 1011.3 |
| 20260506050631 | 11 | 153 | 0.0 | 8.0 | 0.00 | 0.00 | 0.00 | 76 | 1011.1 |
| 20260506050128 | 11 | 146 | 3.2 | 4.8 | 0.00 | 0.00 | 0.00 | 76 | 1011.4 |
| 20260506045121 | 11 | 61 | 4.8 | 8.0 | 0.00 | 0.00 | 0.00 | 75 | 1011.4 |
| 20260506044619 | 11 | 84 | 0.0 | 8.0 | 0.00 | 0.00 | 0.00 | 75 | 1011.0 |
| 20260506044116 | 11 | 137 | 3.2 | 6.4 | 0.00 | 0.00 | 0.00 | 75 | 1011.2 |
| 20260506043613 | 11 | 84 | 0.0 | 6.4 | 0.00 | 0.00 | 0.00 | 74 | 1011.3 |
| 20260506043111 | 12 | 89 | 0.0 | 9.7 | 0.00 | 0.00 | 0.00 | 74 | 1011.5 |
| 20260506042610 | 12 | 121 | 0.0 | 8.0 | 0.00 | 0.00 | 0.00 | 74 | 1011.4 |
| 20260506042108 | 12 | 102 | 0.0 | 8.0 | 0.00 | 0.00 | 0.00 | 74 | 1011.3 |
| 20260506041606 | 12 | 116 | 3.2 | 8.0 | 0.00 | 0.00 | 0.00 | 74 | 1011.3 |
| 20260506041102 | 12 | 194 | 0.0 | 11.3 | 0.00 | 0.00 | 0.00 | 74 | 1011.0 |
| 20260506040600 | 12 | 304 | 0.0 | 8.0 | 0.00 | 0.00 | 0.00 | 74 | 1011.2 |
| 20260506040056 | 12 | 120 | 0.0 | 6.4 | 0.00 | 0.00 | 0.00 | 74 | 1011.3 |
| 20260506035553 | 12 | 77 | 6.4 | 8.0 | 0.00 | 0.00 | 0.00 | 73 | 1011.2 |
| 20260506035050 | 12 | 160 | 6.4 | 12.9 | 0.00 | 0.00 | 0.00 | 73 | 1011.1 |
| 20260506034547 | 12 | 97 | 14.5 | 14.5 | 0.00 | 0.00 | 0.00 | 73 | 1011.1 |
| 20260506034044 | 12 | 126 | 6.4 | 8.0 | 0.00 | 0.00 | 0.00 | 73 | 1010.9 |
| 20260506033542 | 12 | 184 | 0.0 | 11.3 | 0.00 | 0.00 | 0.00 | 73 | 1011.1 |
| 20260506033038 | 12 | 204 | 0.0 | 6.4 | 0.00 | 0.00 | 0.00 | 73 | 1010.7 |
| 20260506032536 | 12 | 137 | 4.8 | 8.0 | 0.00 | 0.00 | 0.00 | 73 | 1010.9 |
| 20260506032032 | 12 | 104 | 6.4 | 8.0 | 0.00 | 0.00 | 0.00 | 72 | 1010.5 |
| 20260506031530 | 12 | 96 | 9.7 | 11.3 | 0.00 | 0.00 | 0.00 | 72 | 1010.8 |
| 20260506031027 | 12 | 63 | 4.8 | 8.0 | 0.00 | 0.00 | 0.00 | 72 | 1010.6 |
| 20260506030525 | 12 | 124 | 6.4 | 6.4 | 0.00 | 0.00 | 0.00 | 72 | 1010.5 |
| 20260506030022 | 12 | 93 | 4.8 | 8.0 | 0.00 | 0.00 | 0.00 | 71 | 1010.6 |
| 20260506025519 | 13 | 124 | 0.0 | 11.3 | 0.00 | 0.00 | 0.00 | 71 | 1010.5 |
| 20260506025015 | 13 | 89 | 0.0 | 8.0 | 0.00 | 0.00 | 0.00 | 71 | 1011.0 |
| 20260506024512 | 13 | 135 | 4.8 | 8.0 | 0.00 | 0.00 | 0.00 | 71 | 1010.8 |
| 20260506024008 | 13 | 153 | 3.2 | 6.4 | 0.00 | 0.00 | 0.00 | 71 | 1010.5 |
| 20260506023504 | 13 | 114 | 6.4 | 9.7 | 0.00 | 0.00 | 0.00 | 71 | 1010.6 |
| 20260506023002 | 13 | 142 | 3.2 | 8.0 | 0.00 | 0.00 | 0.00 | 71 | 1010.4 |
| 20260506022459 | 13 | 122 | 4.8 | 9.7 | 0.00 | 0.00 | 0.00 | 71 | 1010.2 |
| 20260506021957 | 13 | 167 | 0.0 | 8.0 | 0.00 | 0.00 | 0.00 | 71 | 1010.1 |
| 20260506021454 | 13 | 158 | 0.0 | 11.3 | 0.00 | 0.00 | 0.00 | 72 | 1009.9 |
| 20260506020951 | 13 | 118 | 3.2 | 4.8 | 0.00 | 0.00 | 0.00 | 72 | 1009.7 |
| 20260506020449 | 13 | 162 | 3.2 | 6.4 | 0.00 | 0.00 | 0.00 | 72 | 1009.7 |
| 20260506015946 | 13 | 145 | 0.0 | 8.0 | 0.00 | 0.00 | 0.00 | 72 | 1009.8 |
| 20260506015443 | 13 | 119 | 8.0 | 9.7 | 0.00 | 0.00 | 0.00 | 73 | 1009.7 |
| 20260506014940 | 13 | 153 | 4.8 | 8.0 | 0.00 | 0.00 | 0.00 | 73 | 1009.2 |
| 20260506014437 | 13 | 60 | 0.0 | 8.0 | 0.00 | 0.00 | 0.00 | 73 | 1009.2 |
| 20260506013933 | 13 | 149 | 0.0 | 11.3 | 0.00 | 0.00 | 0.00 | 74 | 1009.2 |
| 20260506013432 | 13 | 159 | 0.0 | 9.7 | 0.00 | 0.00 | 0.00 | 74 | 1009.1 |
| 20260506012928 | 13 | 168 | 4.8 | 12.9 | 0.00 | 0.00 | 0.00 | 74 | 1008.9 |
| 20260506012424 | 13 | 167 | 4.8 | 8.0 | 0.00 | 0.00 | 0.00 | 74 | 1008.8 |
| 20260506011921 | 13 | 126 | 8.0 | 11.3 | 0.00 | 0.00 | 0.00 | 74 | 1008.5 |
| 20260506011418 | 13 | 149 | 3.2 | 11.3 | 0.00 | 0.00 | 0.00 | 74 | 1008.4 |
| 20260506010915 | 13 | 70 | 11.3 | 11.3 | 0.00 | 0.00 | 0.00 | 73 | 1008.5 |
| 20260506010414 | 13 | 337 | 0.0 | 8.0 | 0.00 | 0.00 | 0.00 | 73 | 1008.3 |
| 20260506005910 | 13 | 161 | 0.0 | 8.0 | 0.00 | 0.00 | 0.00 | 73 | 1008.6 |
| 20260506005408 | 14 | 152 | 6.4 | 11.3 | 0.00 | 0.00 | 0.00 | 72 | 1008.3 |
| 20260506004903 | 14 | 104 | 4.8 | 11.3 | 0.00 | 0.00 | 0.00 | 73 | 1008.2 |
| 20260506004401 | 14 | 125 | 0.0 | 6.4 | 0.00 | 0.00 | 0.00 | 73 | 1008.1 |
| 20260506003857 | 15 | 92 | 3.2 | 6.4 | 0.00 | 0.00 | 0.00 | 72 | 1008.2 |
| 20260506003353 | 14 | 115 | 0.0 | 8.0 | 0.00 | 0.00 | 0.00 | 72 | 1008.2 |
| 20260506002850 | 15 | 184 | 0.0 | 6.4 | 0.00 | 0.00 | 0.00 | 73 | 1008.2 |
| 20260506002346 | 15 | 114 | 6.4 | 9.7 | 0.00 | 0.00 | 0.00 | 72 | 1008.3 |
| 20260506001842 | 15 | 215 | 0.0 | 9.7 | 0.00 | 0.00 | 0.00 | 71 | 1008.1 |
| 20260506001339 | 15 | 14 | 0.0 | 8.0 | 0.00 | 0.00 | 0.00 | 71 | 1008.0 |
| 20260506000836 | 15 | 120 | 6.4 | 6.4 | 0.00 | 0.00 | 0.00 | 71 | 1008.2 |
| 20260506000334 | 15 | 3 | 0.0 | 9.7 | 0.00 | 0.00 | 0.00 | 70 | 1007.7 |
| 20260505235830 | 16 | 66 | 3.2 | 8.0 | 0.00 | 0.00 | 0.00 | 69 | 1007.7 |
| 20260505235328 | 16 | 136 | 8.0 | 8.0 | 0.00 | 0.00 | 0.00 | 68 | 1007.7 |
| 20260505234824 | 16 | 168 | 0.0 | 8.0 | 0.00 | 0.00 | 0.00 | 67 | 1007.6 |
| 20260505234322 | 16 | 244 | 0.0 | 8.0 | 0.00 | 0.00 | 0.00 | 67 | 1007.5 |
| 20260505233819 | 16 | 150 | 0.0 | 4.8 | 0.00 | 0.00 | 0.00 | 67 | 1007.6 |
| 20260505233317 | 17 | 180 | 0.0 | 8.0 | 0.00 | 0.00 | 0.00 | 65 | 1007.4 |
| 20260505232814 | 17 | 138 | 0.0 | 6.4 | 0.00 | 0.00 | 0.00 | 65 | 1007.5 |
| 20260505232311 | 17 | 162 | 0.0 | 8.0 | 0.00 | 0.00 | 0.00 | 64 | 1007.2 |
| 20260505231808 | 17 | 50 | 0.0 | 8.0 | 0.00 | 0.00 | 0.00 | 64 | 1007.6 |
| 20260505231306 | 18 | 99 | 6.4 | 8.0 | 0.00 | 0.00 | 0.00 | 62 | 1007.3 |
| 20260505230804 | 18 | 241 | 4.8 | 11.3 | 0.00 | 0.00 | 0.00 | 62 | 1007.6 |
| 20260505230301 | 18 | 156 | 0.0 | 9.7 | 0.00 | 0.00 | 0.00 | 61 | 1007.6 |
| 20260505225757 | 18 | 88 | 0.0 | 3.2 | 0.00 | 0.00 | 0.00 | 61 | 1007.7 |
| 20260505225255 | 19 | 181 | 4.8 | 4.8 | 0.00 | 0.00 | 0.00 | 60 | 1007.4 |
| 20260505224749 | 20 | 253 | 0.0 | 6.4 | 0.00 | 0.00 | 0.00 | 59 | 1007.5 |
| 20260505224247 | 20 | 178 | 3.2 | 12.9 | 0.00 | 0.00 | 0.00 | 58 | 1007.4 |
| 20260505223745 | 21 | 210 | 0.0 | 9.7 | 0.00 | 0.00 | 0.00 | 55 | 1007.6 |
| 20260505223241 | 20 | 132 | 0.0 | 8.0 | 0.00 | 0.00 | 0.00 | 57 | 1007.4 |
| 20260505222737 | 20 | 201 | 0.0 | 4.8 | 0.00 | 0.00 | 0.00 | 57 | 1007.3 |
| 20260505222234 | 20 | 254 | 8.0 | 9.7 | 0.00 | 0.00 | 0.00 | 57 | 1007.4 |
| 20260505221731 | 21 | 237 | 8.0 | 14.5 | 0.00 | 0.00 | 0.00 | 56 | 1007.3 |
| 20260505221227 | 20 | 269 | 0.0 | 8.0 | 0.00 | 0.00 | 0.00 | 55 | 1007.0 |
| 20260505220724 | 21 | 195 | 0.0 | 14.5 | 0.00 | 0.00 | 0.00 | 54 | 1006.9 |
| 20260505220222 | 21 | 305 | 3.2 | 8.0 | 0.00 | 0.00 | 0.00 | 53 | 1006.9 |
| 20260505215720 | 21 | 254 | 4.8 | 11.3 | 0.00 | 0.00 | 0.00 | 54 | 1007.0 |
| 20260505215217 | 20 | 196 | 4.8 | 6.4 | 0.00 | 0.00 | 0.00 | 56 | 1007.0 |
| 20260505214715 | 21 | 17 | 0.0 | 9.7 | 0.00 | 0.00 | 0.00 | 55 | 1007.0 |
| 20260505214212 | 20 | 229 | 3.2 | 12.9 | 0.00 | 0.00 | 0.00 | 54 | 1006.9 |
| 20260505213709 | 21 | 44 | 4.8 | 9.7 | 0.00 | 0.00 | 0.00 | 55 | 1007.2 |
| 20260505213206 | 20 | 232 | 6.4 | 8.0 | 0.00 | 0.00 | 0.00 | 55 | 1007.2 |
| 20260505212702 | 21 | 257 | 4.8 | 8.0 | 0.00 | 0.00 | 0.00 | 56 | 1007.4 |
| 20260505212200 | 21 | 279 | 14.5 | 17.7 | 0.00 | 0.00 | 0.00 | 54 | 1007.0 |
| 20260505211657 | 20 | 126 | 0.0 | 9.7 | 0.00 | 0.00 | 0.00 | 56 | 1007.0 |
| 20260505211154 | 21 | 283 | 4.8 | 20.9 | 0.00 | 0.00 | 0.00 | 56 | 1006.9 |
| 20260505210650 | 21 | 244 | 9.7 | 12.9 | 0.00 | 0.00 | 0.00 | 55 | 1007.0 |
| 20260505210147 | 21 | 289 | 9.7 | 17.7 | 0.00 | 0.00 | 0.00 | 55 | 1007.0 |
| 20260505205645 | 21 | 195 | 0.0 | 16.1 | 0.00 | 0.00 | 0.00 | 56 | 1007.0 |
| 20260505205143 | 21 | 300 | 0.0 | 11.3 | 0.00 | 0.00 | 0.00 | 56 | 1007.1 |
| 20260505204639 | 20 | 268 | 6.4 | 6.4 | 0.00 | 0.00 | 0.00 | 56 | 1006.7 |
| 20260505204137 | 20 | 247 | 0.0 | 16.1 | 0.00 | 0.00 | 0.00 | 57 | 1006.8 |
| 20260505203634 | 21 | 276 | 6.4 | 8.0 | 0.00 | 0.00 | 0.00 | 56 | 1006.2 |
| 20260505203131 | 21 | 238 | 0.0 | 14.5 | 0.00 | 0.00 | 0.00 | 55 | 1006.8 |
| 20260505202626 | 21 | 239 | 12.9 | 12.9 | 0.00 | 0.00 | 0.00 | 54 | 1006.8 |
| 20260505202122 | 22 | 296 | 4.8 | 8.0 | 0.00 | 0.00 | 0.00 | 53 | 1006.5 |
| 20260505201619 | 21 | 264 | 0.0 | 11.3 | 0.00 | 0.00 | 0.00 | 54 | 1007.0 |
| 20260505201117 | 21 | 282 | 3.2 | 11.3 | 0.00 | 0.00 | 0.00 | 54 | 1006.9 |
| 20260505200615 | 21 | 267 | 0.0 | 9.7 | 0.00 | 0.00 | 0.00 | 55 | 1006.7 |
| 20260505200112 | 21 | 282 | 0.0 | 14.5 | 0.00 | 0.00 | 0.00 | 54 | 1006.9 |
| 20260505195608 | 21 | 278 | 8.0 | 16.1 | 0.00 | 0.00 | 0.00 | 54 | 1006.9 |
| 20260505195105 | 20 | 246 | 6.4 | 11.3 | 0.00 | 0.00 | 0.00 | 57 | 1006.8 |
| 20260505194602 | 20 | 240 | 0.0 | 8.0 | 0.00 | 0.00 | 0.00 | 56 | 1006.8 |
| 20260505194058 | 20 | 227 | 6.4 | 6.4 | 0.00 | 0.00 | 0.00 | 57 | 1006.8 |
| 20260505193555 | 20 | 274 | 0.0 | 14.5 | 0.00 | 0.00 | 0.00 | 55 | 1006.9 |
| 20260505193052 | 21 | 276 | 6.4 | 11.3 | 0.00 | 0.00 | 0.00 | 54 | 1006.9 |
| 20260505192551 | 21 | 273 | 0.0 | 6.4 | 0.00 | 0.00 | 0.00 | 55 | 1006.9 |
| 20260505192048 | 22 | 255 | 8.0 | 17.7 | 0.00 | 0.00 | 0.00 | 53 | 1006.9 |
| 20260505191546 | 22 | 213 | 4.8 | 14.5 | 0.00 | 0.00 | 0.00 | 54 | 1007.0 |
| 20260505191044 | 21 | 275 | 11.3 | 12.9 | 0.00 | 0.00 | 0.00 | 54 | 1006.7 |
| 20260505190538 | 21 | 293 | 3.2 | 8.0 | 0.00 | 0.00 | 0.00 | 56 | 1006.4 |
| 20260505190034 | 22 | 295 | 11.3 | 17.7 | 0.00 | 0.00 | 0.00 | 52 | 1006.7 |
| 20260505185531 | 22 | 246 | 0.0 | 8.0 | 0.00 | 0.00 | 0.00 | 53 | 1006.3 |
| 20260505185028 | 22 | 238 | 6.4 | 14.5 | 0.00 | 0.00 | 0.00 | 55 | 1006.4 |
| 20260505184524 | 23 | 284 | 0.0 | 12.9 | 0.00 | 0.00 | 0.00 | 52 | 1006.5 |
| 20260505184021 | 23 | 278 | 4.8 | 12.9 | 0.00 | 0.00 | 0.00 | 53 | 1006.7 |
| 20260505183518 | 22 | 233 | 8.0 | 8.0 | 0.00 | 0.00 | 0.00 | 55 | 1006.4 |
| 20260505183016 | 22 | 303 | 0.0 | 16.1 | 0.00 | 0.00 | 0.00 | 54 | 1006.1 |
| 20260505182512 | 22 | 214 | 3.2 | 12.9 | 0.00 | 0.00 | 0.00 | 56 | 1006.5 |
| 20260505182008 | 23 | 265 | 8.0 | 11.3 | 0.00 | 0.00 | 0.00 | 54 | 1006.4 |
| 20260505181505 | 23 | 290 | 6.4 | 14.5 | 0.00 | 0.00 | 0.00 | 54 | 1006.5 |
| 20260505181003 | 21 | 260 | 0.0 | 12.9 | 0.00 | 0.00 | 0.00 | 56 | 1006.8 |
| 20260505180458 | 21 | 322 | 0.0 | 12.9 | 0.00 | 0.00 | 0.00 | 56 | 1006.4 |
| 20260505175955 | 22 | 246 | 0.0 | 17.7 | 0.00 | 0.00 | 0.00 | 57 | 1006.1 |
| 20260505175451 | 22 | 260 | 9.7 | 14.5 | 0.00 | 0.00 | 0.00 | 57 | 1005.8 |
| 20260505174948 | 22 | 266 | 0.0 | 12.9 | 0.00 | 0.00 | 0.00 | 58 | 1005.7 |
| 20260505174445 | 22 | 300 | 8.0 | 11.3 | 0.00 | 0.00 | 0.00 | 57 | 1005.8 |
| 20260505173941 | 23 | 283 | 8.0 | 14.5 | 0.00 | 0.00 | 0.00 | 56 | 1005.5 |
| 20260505173438 | 22 | 252 | 4.8 | 8.0 | 0.00 | 0.00 | 0.00 | 59 | 1005.5 |
| 20260505172935 | 23 | 245 | 4.8 | 14.5 | 0.00 | 0.00 | 0.00 | 57 | 1005.4 |
| 20260505172433 | 23 | 283 | 6.4 | 14.5 | 0.00 | 0.00 | 0.00 | 56 | 1005.1 |
| 20260505171932 | 24 | 264 | 9.7 | 9.7 | 0.00 | 0.00 | 0.00 | 56 | 1005.1 |
| 20260505171430 | 25 | 263 | 3.2 | 9.7 | 0.00 | 0.00 | 0.00 | 55 | 1004.8 |
| 20260505170926 | 25 | 305 | 8.0 | 12.9 | 0.00 | 0.00 | 0.00 | 54 | 1004.6 |
| 20260505170423 | 25 | 276 | 3.2 | 12.9 | 0.00 | 0.00 | 0.00 | 54 | 1004.8 |
| 20260505165918 | 25 | 255 | 8.0 | 14.5 | 0.00 | 0.00 | 0.00 | 54 | 1004.7 |
| 20260505165415 | 25 | 260 | 14.5 | 14.5 | 0.00 | 0.00 | 0.00 | 53 | 1004.5 |
| 20260505164910 | 25 | 277 | 8.0 | 14.5 | 0.00 | 0.00 | 0.00 | 52 | 1004.6 |
| 20260505164407 | 24 | 247 | 8.0 | 9.7 | 0.00 | 0.00 | 0.00 | 49 | 1004.4 |
| 20260505163905 | 25 | 254 | 4.8 | 9.7 | 0.00 | 0.00 | 0.00 | 49 | 1004.4 |
| 20260505163404 | 25 | 276 | 8.0 | 12.9 | 0.00 | 0.00 | 0.00 | 44 | 1004.2 |
| 20260505162902 | 25 | 285 | 9.7 | 16.1 | 0.00 | 0.00 | 0.00 | 39 | 1004.3 |
| 20260505162357 | 25 | 250 | 3.2 | 12.9 | 0.00 | 0.00 | 0.00 | 38 | 1004.3 |
| 20260505161855 | 25 | 258 | 6.4 | 9.7 | 0.00 | 0.00 | 0.00 | 37 | 1004.4 |
| 20260505161351 | 25 | 177 | 6.4 | 11.3 | 0.00 | 0.00 | 0.00 | 36 | 1003.9 |
| 20260505160849 | 26 | 263 | 4.8 | 11.3 | 0.00 | 0.00 | 0.00 | 35 | 1003.8 |
| 20260505160347 | 26 | 244 | 4.8 | 11.3 | 0.00 | 0.00 | 0.00 | 35 | 1003.9 |
| 20260505153325 | 26 | 259 | 6.4 | 16.1 | 0.00 | 0.00 | 0.00 | 40 | 1003.3 |
| 20260505152822 | 25 | 260 | 0.0 | 8.0 | 0.00 | 0.00 | 0.00 | 42 | 1003.1 |
| 20260505152319 | 25 | 282 | 3.2 | 11.3 | 0.00 | 0.00 | 0.00 | 41 | 1003.0 |
| 20260505151814 | 25 | 265 | 3.2 | 8.0 | 0.00 | 0.00 | 0.00 | 46 | 1002.8 |
| 20260505151311 | 25 | 224 | 12.9 | 12.9 | 0.00 | 0.00 | 0.00 | 44 | 1003.0 |
| 20260505150808 | 25 | 236 | 3.2 | 17.7 | 0.00 | 0.00 | 0.00 | 46 | 1002.8 |
| 20260505150305 | 25 | 226 | 4.8 | 20.9 | 0.00 | 0.00 | 0.00 | 50 | 1003.0 |
| 20260505140229 | 22 | 204 | 17.7 | 25.7 | 0.00 | 0.00 | 0.00 | 71 | 1002.3 |
| 20260505130153 | 20 | 191 | 8.0 | 20.9 | 0.00 | 0.00 | 0.00 | 80 | 1001.8 |
| 20260505124643 | 20 | 182 | 17.7 | 35.4 | 0.00 | 0.00 | 0.00 | 81 | 1001.5 |
| 20260505124139 | 20 | 206 | 11.3 | 20.9 | 0.00 | 0.00 | 0.00 | 81 | 1001.5 |
| 20260505123635 | 20 | 188 | 11.3 | 32.2 | 0.00 | 0.00 | 0.00 | 81 | 1001.4 |
| 20260505123132 | 20 | 188 | 9.7 | 32.2 | 0.00 | 0.00 | 0.00 | 81 | 1001.5 |
| 20260505122629 | 20 | 178 | 17.7 | 25.7 | 0.00 | 0.00 | 0.00 | 81 | 1001.5 |
| 20260505122126 | 20 | 210 | 9.7 | 33.8 | 0.00 | 0.00 | 0.00 | 81 | 1001.3 |
| 20260505121622 | 20 | 215 | 11.3 | 40.2 | 0.00 | 0.00 | 0.00 | 81 | 1001.0 |
| 20260505121119 | 20 | 187 | 20.9 | 29.0 | 0.00 | 0.00 | 0.00 | 81 | 1001.1 |
| 20260505120615 | 20 | 198 | 25.7 | 32.2 | 0.00 | 0.00 | 0.00 | 81 | 1001.1 |
| 20260505120111 | 20 | 214 | 16.1 | 20.9 | 0.00 | 0.00 | 0.00 | 81 | 1001.1 |
| 20260505115606 | 20 | 198 | 27.4 | 32.2 | 0.00 | 0.00 | 0.00 | 80 | 1000.9 |
| 20260505115103 | 20 | 193 | 11.3 | 27.4 | 0.00 | 0.00 | 0.00 | 80 | 1001.0 |
| 20260505114555 | 20 | 203 | 16.1 | 24.1 | 0.00 | 0.00 | 0.00 | 80 | 1001.1 |
| 20260505114051 | 20 | 202 | 12.9 | 24.1 | 0.00 | 0.00 | 0.00 | 80 | 1001.1 |
| 20260505113548 | 20 | 221 | 17.7 | 33.8 | 0.00 | 0.00 | 0.00 | 80 | 1001.0 |
| 20260505113044 | 21 | 188 | 9.7 | 35.4 | 0.00 | 0.00 | 0.00 | 80 | 1000.9 |
| 20260505112540 | 21 | 209 | 9.7 | 35.4 | 0.00 | 0.00 | 0.00 | 79 | 1000.8 |
| 20260505112039 | 21 | 188 | 16.1 | 33.8 | 0.00 | 0.00 | 0.00 | 79 | 1000.8 |
| 20260505111538 | 21 | 198 | 9.7 | 35.4 | 0.00 | 0.00 | 0.00 | 79 | 1000.9 |
| 20260505111035 | 21 | 210 | 20.9 | 33.8 | 0.00 | 0.00 | 0.00 | 79 | 1000.7 |
| 20260505110531 | 21 | 199 | 16.1 | 33.8 | 0.00 | 0.00 | 0.00 | 79 | 1000.7 |
| 20260505101958 | 21 | 179 | 14.5 | 27.4 | 0.00 | 0.00 | 0.00 | 77 | 1000.8 |
| 20260505101455 | 21 | 183 | 8.0 | 37.0 | 0.00 | 0.00 | 0.00 | 77 | 1000.6 |
| 20260505100952 | 21 | 203 | 24.1 | 25.7 | 0.00 | 0.00 | 0.00 | 77 | 1000.6 |
| 20260505100450 | 21 | 181 | 14.5 | 30.6 | 0.00 | 0.00 | 0.00 | 76 | 1000.6 |
| 20260505095945 | 22 | 199 | 17.7 | 33.8 | 0.00 | 0.00 | 0.00 | 76 | 1000.7 |
| 20260505095442 | 22 | 148 | 8.0 | 33.8 | 0.00 | 0.00 | 0.00 | 76 | 1000.5 |
| 20260505094938 | 22 | 192 | 9.7 | 35.4 | 0.00 | 0.00 | 0.00 | 76 | 1000.4 |
| 20260505094435 | 22 | 195 | 9.7 | 25.7 | 0.00 | 0.00 | 0.00 | 75 | 1000.7 |
| 20260505093931 | 22 | 195 | 19.3 | 30.6 | 0.00 | 0.00 | 0.00 | 75 | 1000.8 |
| 20260505093428 | 22 | 213 | 11.3 | 20.9 | 0.00 | 0.00 | 0.00 | 75 | 1000.6 |
| 20260505092925 | 22 | 173 | 6.4 | 27.4 | 0.00 | 0.00 | 0.00 | 74 | 1000.5 |